Location: Esp�n
(42.4593°N, 0.2047°W)
Time: 06:39:00
(UTC+00:00)

Envisat - Visible Passes

Search period start: 02 August 2021 00:00
Search period end: 12 August 2021 00:00
Orbit: 764 x 766 km, 98.2° (Epoch: 01 August)

Date Brightness Start Highest point End Pass type
(mag) Time Alt. Az. Time Alt. Az. Time Alt. Az.
02 Aug 5.7 04:10:32 10° NE 04:13:55 18° E 04:17:17 10° SE visible
05 Aug 5.9 03:59:44 10° ENE 04:02:18 14° E 04:04:52 10° ESE visible
07 Aug 5.4 04:23:49 10° NE 04:27:56 24° E 04:32:00 10° SSE visible
08 Aug 6.2 03:49:41 10° ENE 03:50:40 10° E 03:51:39 10° E visible
10 Aug 5.7 04:12:44 10° NE 04:16:20 19° E 04:19:54 10° SE visible
